Rbgn^[z[y[W
メイン
   新天体発見情報
     Comet P/2025 A2 (PANSTARRS)
投稿するにはまず登録を

フラット表示 前のトピック | 次のトピック
投稿者 スレッド
佐藤裕久
投稿日時: 2025-1-16 23:04
モデレータ
登録日: 2005-6-12
居住地: 日本
投稿: 2661
オンライン
Comet P/2025 A2 (PANSTARRS)

R. Weryk (西オンタリオ大学,物理および天文学科)の通報によると、1月7日、Haleakalaにある
Pan-STARRS2 1.8-m Ritchey-Chretien反射望遠鏡で得た画像から彗星を発見した。
1".1-1".3のシーイングで得た、4枚のスタックした45-秒のw-バンドサーベイ画像は、1".4 (半値
全幅:FWHM)の非常に集光したコマが見え、p.a. 310°に5"のまっすぐな尾がある。
Werykはまた、2024年12月23.5UT(20.9-21.0等)、HaleakalaのPan-STARRS2 1.8-m Ritchey-Chretien
反射望遠鏡で得たこの彗星の画像を小惑星センターの"isolated tracklet file"で確認した。
小惑星センターのPCCP webpageに公表後、S. Deen (S. Deen (Simi Valley, カリフォルニア州, 
米国)は、Cerro Tololo 汎米天文台の4-m 反射望遠鏡(+ DECam)で、2024年11月27.29日UT(V=21.5等)、
28.29日(g=22.0等)、30.29日(g=21.8等)に得た公開画像から、この天体の観測記録を見つけた。
ただし、この天体は、11月28日、p.a. 335°に向かって1".5ほどの尾があり、1".0のシーイングで
本質的な恒星状の核集光が見えた以外は、どの画像でも明らかに彗星には見えなかった。 Deenはまた、
2024年12月1.44-1.46日、Mt Lemmonの 1.5-m 反射望遠鏡(光度は不明)で得た画像にもこの彗星を確認
したが、明らかな彗星の姿はなかった。また、2024年11月1日に得た1枚のMt Lemmon画像には、限界
光度22.0等の予報位置位置には何もなかった。

彗星機能の報告は次のとおり、

OC   Date        Reporter            Coma    Tail   PA   Comet     Date
                                                        (T/P)   Reported
W84  2024-11-28  S. Deen             0".8      2"  335    P   2025-01-10.23
F51  2025-01-07  R. Weryk                      5"  310    T   2025-01-09.17

発見位置は次のとおり(NEOCP P125uch)、

     2025 UT             R.A. (2000) Decl.       Mag.
     Jan.  7.41644    8 33 10.87   - 7 16 11.5   21.0
           7.42769    8 33 10.52   - 7 16 11.0   20.7
           7.43897    8 33 10.18   - 7 16 10.4   20.8
           7.45031    8 33 09.83   - 7 16 09.8   20.8

MPCの楕円軌道要素、位置推算表は次のとおり、

Orbital elements:
    P/2025 A2 (PANSTARRS)                                                       
Epoch 2024 Oct. 17.0 TT = JDT 2460600.5                                         
T 2024 Oct. 5.97768 TT                                  Veres                   
q   3.4465769            (2000.0)            P               Q                  
n   0.08591179     Peri.  278.09310     -0.28898556     -0.95561267             
a   5.0866776      Node   189.32705     +0.95677119     -0.28624296             
e   0.3224306      Incl.   20.73269     +0.03280606     -0.06978110             
P  11.5                                                                         
From 30 observations 2024 Nov. 27-2025 Jan. 9, mean residual 0".2.              
                                                                                
Ephemeris:
Date    TT    R. A. (2000) Decl.     Delta      r    Elong.  Phase   m1
2024 12 12    08 41 24.6 -06 32 56   2.8413  3.4645   121.9    14.0  20.9
...
2024 12 27    08 38 02.2 -07 12 27   2.7064  3.4734   135.1    11.5  20.8
...
2025 01 04    08 34 48.2 -07 17 40   2.6520  3.4788   141.9    10.1  20.7
...
2025 01 10    08 31 52.4 -07 13 31   2.6206  3.4832   146.5     9.0  20.7
2025 01 11    08 31 21.1 -07 12 09   2.6162  3.4839   147.2     8.8  20.7
2025 01 12    08 30 49.4 -07 10 35   2.6121  3.4847   147.9     8.6  20.7
...
2025 01 18    08 27 30.4 -06 57 06   2.5925  3.4894   151.6     7.7  20.7
...
2025 01 26    08 22 52.8 -06 28 33   2.5811  3.4962   154.6     6.9  20.7
...
2025 02 10    08 14 39.2 -05 06 38   2.6067  3.5101   152.2     7.5  20.7

(MPEC 2025-A162 、CBET 5494)

フラット表示 前のトピック | 次のトピック

題名 投稿者 日時
 » Comet P/2025 A2 (PANSTARRS) 佐藤裕久 2025-1-16 23:04

投稿するにはまず登録を
 
© 1999 Tsutomu Seki.